Location: Prairie View
(39.8325°N, 99.5726°W)
Time: 02:17:13
(UTC+00:00)

Daily predictions for brighter satellites

Satellite Brightness Start Highest point End
(mag) Time Altitude Azimuth Time Altitude Azimuth Time Altitude Azimuth
SJ 16-02 3.1 00:55:14 10° SW 00:59:18 37° WNW 01:03:23 10° N
H-2A R/B 2.9 00:55:15 10° SE 00:59:26 28° ENE 01:03:41 10° N
BREEZE-M TANK 4.3 00:39:15 10° SW 00:59:48 72° SSE 01:04:25 10° ENE
ATLAS 2AS CENTAUR R/B 4.5 00:58:13 10° ESE 01:00:43 12° E 01:03:13 10° E
Sich 1 Rocket 4.3 00:57:02 10° SSE 01:01:03 33° E 01:05:06 10° NNE
Cosmos 1975 2.8 00:58:59 10° S 01:03:03 78° E 01:07:09 10° N
NOSS 2-2 (D) 3.0 00:59:45 10° SSW 01:03:13 60° ESE 01:06:49 10° NE
Okean 2 3.4 00:59:19 10° N 01:03:28 61° E 01:07:33 10° SSE
Cosmos 1378 Rocket 4.3 01:01:08 10° NNW 01:05:22 57° W 01:09:34 10° S
CENTAUR R/B 4.4 01:00:52 10° NNW 01:07:02 24° NE 01:13:39 10° E
Cosmos 1842 3.2 01:04:25 10° N 01:08:15 63° E 01:12:05 10° SSE
CZ-4 R/B 1.4 01:09:23 10° SSE 01:13:35 81° ENE 01:17:49 10° N
USA 116 3.6 01:13:17 10° NNE 01:16:52 62° ESE 01:20:52 10° S
Okean 2 Rocket 3.8 01:13:30 10° SSE 01:17:27 31° E 01:21:25 10° NNE
Cosmos 1707 3.6 01:15:00 10° NNE 01:18:20 28° ENE 01:21:39 10° SE
Cosmos 1300 Rocket 4.2 01:16:14 10° SSE 01:20:07 32° E 01:24:04 10° NNE
Ariane Rocket 4.3 01:16:56 10° ESE 01:20:36 21° ENE 01:24:16 10° NNE
DELTA 2 R/B (1) 4.0 01:18:30 10° W 01:23:56 57° SSW 01:29:07 11° ESE
Okean-O 3.3 01:23:39 10° S 01:28:00 60° W 01:32:24 10° NNW
ARGOS 3.6 01:23:42 10° SE 01:28:41 41° ENE 01:33:41 10° N
YAOGAN 1 2.7 01:25:08 10° S 01:29:27 81° WSW 01:33:48 10° NNW
Cosmos 1437 3.0 01:29:27 10° NNW 01:32:25 63° W 01:35:22 10° S
SJ-6B 4.3 01:33:14 16° E 01:33:54 16° ENE 01:36:17 10° NNE
CZ-2C R/B 3.5 01:30:40 10° NE 01:35:30 30° E 01:40:21 10° SSE
CZ-2C R/B 3.1 01:31:20 10° SSE 01:36:32 84° ENE 01:42:05 10° NNW
Cosmos 2298 Rocket 4.2 01:32:29 10° S 01:37:37 51° ESE 01:42:46 10° NNE
MOS 1 Rocket 3.0 01:38:42 10° NNE 01:43:05 69° E 01:47:20 10° S
Cosmos 1536 Rocket 4.4 01:39:14 10° NNE 01:43:13 31° ENE 01:45:33 19° SE
Cosmos 1513 Rocket 4.4 01:37:19 10° S 01:43:32 70° E 01:49:42 10° NNE
USA 186 2.8 01:43:19 24° E 01:43:42 25° ENE 01:46:24 10° NNE
Cosmos 372 Rocket 4.0 01:41:16 10° SSW 01:46:31 88° WNW 01:51:47 10° NNE
NOSS 2-2 (C) 4.5 01:44:34 10° WSW 01:47:53 39° NW 01:51:26 10° NNE
Cosmos 1025 Rocket 3.3 01:43:56 10° N 01:48:10 47° E 01:51:49 13° SSE
Cosmos 2263 Rocket 4.0 01:45:11 10° WSW 01:50:07 32° WNW 01:55:07 10° N
NOSS 3-2 (A) 4.4 01:43:29 10° NNW 01:50:49 49° NE 01:56:30 20° ESE
Cosmos 1844 4.0 01:46:11 10° S 01:51:33 43° ESE 01:56:53 10° NE
ISS -2.0 01:49:39 10° W 01:52:42 30° NNW 01:55:44 10° NE
Cosmos 1464 Rocket 3.9 01:47:33 10° S 01:53:39 80° E 01:59:50 10° N
Cosmos 1844 Rocket 2.6 01:50:38 10° S 01:56:05 60° ESE 02:01:34 10° NNE
Cosmos 1867 3.5 01:51:56 10° NNW 01:57:26 89° ENE 02:01:44 17° SSE
Cosmos 2151 Rocket 3.5 01:54:44 10° S 01:59:07 65° E 02:03:34 10° NNE
CZ-2C R/B 1.7 02:03:15 10° WSW 02:06:34 34° S 02:07:04 33° SSE
Cosmos 2150 Rocket 4.0 02:01:22 10° SSW 02:06:43 87° ESE 02:12:11 10° NNE
MetOp-A 4.4 02:07:40 29° SE 02:09:56 46° ENE 02:15:02 10° N
Cosmos 1125 Rocket 3.5 02:05:38 10° S 02:10:50 62° ESE 02:16:06 10° NNE
USA 234 3.5 02:04:47 10° ENE 02:11:03 46° SE 02:17:17 10° SSW
Milstar 3 Cent rocket 3.6 02:08:09 10° SW 02:13:05 21° S 02:14:14 20° SSE
MOS 1 4.4 02:10:42 26° SE 02:13:50 56° ENE 02:19:24 10° N
Longmarch 3A Rocket 3.9 02:12:37 10° S 02:12:56 11° S 02:12:56 11° S
DMSP B5D2-2 4.0 02:12:53 10° NNE 02:18:08 61° E 02:23:21 10° S
BREEZE-M DEB (TANK) 3.2 02:18:02 10° WNW 02:19:17 34° WNW 02:19:17 34° WNW
NOSS 3-2 (C) 4.3 02:19:08 10° NNW 02:26:34 53° NE 02:29:49 35° ESE
NOSS 3-4 (A) 3.5 02:22:17 10° S 02:27:50 47° ESE 02:30:10 32° ENE
NOSS 3-4 (C) 3.5 02:22:24 10° S 02:27:57 47° ESE 02:29:46 36° ENE
Abrixas rocket 4.5 02:27:09 10° NNW 02:28:31 15° N 02:28:31 15° N
Cosmos 1674 3.0 02:25:43 10° N 02:28:51 52° NNE 02:28:51 52° NNE
Cosmos 468 4.4 02:25:49 10° NNW 02:31:11 89° E 02:33:12 40° SSE
Cosmos 1805 4.3 02:33:05 34° NNE 02:33:05 34° NNE 02:35:27 10° NNE
Resurs 01 Rocket 3.2 02:36:49 23° NNE 02:36:49 23° NNE 02:39:02 10° N
Meteor 1-15 Rocket 4.2 02:30:22 10° S 02:35:58 85° W 02:41:42 10° N
Exosat Rocket 3.6 02:32:09 10° SSW 02:38:02 85° WNW 02:43:03 10° NNE
H-2A R/B 3.7 02:34:21 10° SSW 02:38:44 32° W 02:43:13 10° NNW
Cosmos 1048 Rocket 4.1 02:36:23 10° NNW 02:41:44 78° WSW 02:43:27 44° S
IRS-1A Rocket 4.5 02:38:35 23° S 02:42:23 75° WSW 02:48:16 10° NNW
Nadezhda 4 Rocket 4.3 02:41:31 10° NNW 02:47:33 65° W 02:52:33 16° S
ATLAS 2AS CENTAUR R/B 2.9 02:42:33 10° SSW 02:50:20 67° ESE 02:58:12 10° NE
BREEZE-M DEB (TANK) 3.6 02:47:50 10° WNW 02:51:40 81° SSW 02:54:11 46° SE
Okean 1 Rocket 3.3 02:53:24 69° W 02:53:33 70° W 02:58:03 10° N
OBJECT-B 3.5 02:56:31 16° NNW 02:56:31 16° NNW 02:57:13 10° NNW
CENTAUR R/B 3.2 02:50:53 10° NNW 02:59:08 74° NE 03:01:27 53° ESE
Ariane Rocket 3.8 02:56:56 28° SSW 02:59:11 47° W 03:04:04 10° NNW
Cosmos 494 Rocket 4.1 03:01:42 10° NNW 03:06:52 72° W 03:06:52 72° W
Cosmos 2082 Rocket 4.2 03:03:15 10° N 03:05:22 16° NNE 03:05:22 16° NNE
ATLAS 3B R/B 3.7 03:01:10 10° NNW 03:07:14 32° NE 03:07:18 32° NE
Meteor 2-5 Rocket 3.7 03:04:36 10° NNW 03:10:17 80° W 03:10:22 80° WSW
Meteor 1-22 Rocket 4.3 03:14:29 82° WNW 03:14:29 82° WNW 03:20:31 10° N
USA 238 DEB 4.1 03:07:48 10° NW 03:15:01 65° WSW 03:16:46 51° S
USA 238 4.1 03:07:54 10° NW 03:15:07 65° WSW 03:16:50 52° S
CZ-2C R/B 4.1 03:10:44 10° N 03:15:46 36° WNW 03:20:50 10° SW
COSMOS 2406 4.2 03:16:33 10° NNW 03:20:17 37° NNE 03:20:17 37° NNE
Cosmos 1634 Rocket 4.2 03:21:52 46° SW 03:23:32 64° W 03:29:42 10° N
SPOT 3 Rocket 4.2 03:25:35 52° NW 03:25:35 52° NW 03:29:45 10° NNW
Meteor 1-24 Rocket 4.1 03:22:13 10° NNW 03:26:44 58° NW 03:26:44 58° NW
USA 234 3.8 03:52:10 40° NNE 03:54:04 52° NW 04:00:22 10° WSW
Cosmos 1833 Rocket 4.4 04:01:00 10° NNW 04:03:33 28° NNW 04:03:33 28° NNW
ATLAS 2AS CENTAUR R/B 4.4 04:34:49 10° WSW 04:41:53 34° NW 04:48:55 10° NNE
ATLAS 3B R/B 4.3 04:51:29 10° NW 04:54:32 28° NW 04:54:32 28° NW
Cosmos 1980 Rocket 3.9 08:52:46 28° ENE 08:52:46 28° ENE 08:55:50 10° NE
ADEOS II 3.9 09:07:02 10° N 09:09:06 24° N 09:09:06 24° N
ARIANE 5 R/B 4.1 09:09:51 10° NNE 09:12:41 31° NE 09:12:41 31° NE
IDEFIX/ARIANE 42P 3.8 09:16:04 10° NNE 09:20:03 40° ENE 09:20:03 40° ENE
SJ 16-02 4.0 09:25:14 10° NNE 09:28:15 18° ENE 09:31:14 10° ESE
H-2A R/B 4.5 09:32:58 10° ESE 09:36:19 22° ENE 09:39:44 10° NNE
BREEZE-M DEB (TANK) 4.0 09:39:27 69° SSW 09:40:17 76° SE 10:00:12 10° ENE
Lacrosse 5 3.4 09:45:25 28° N 09:45:25 28° N 09:48:37 10° NNE
X-37B 3.9 09:51:10 14° ENE 09:51:10 14° ENE 09:51:45 10° ENE
Cosmos 2278 4.2 09:50:09 52° NNW 09:50:09 52° NNW 09:54:41 10° NNE
NOSS 3-3 (A) 3.6 10:06:31 74° WSW 10:07:02 83° NW 10:13:25 10° NNE
NOSS 3-3 (C) 3.6 10:06:41 75° WSW 10:07:09 83° NW 10:13:29 10° NNE
USA 267 3.7 10:02:20 10° NE 10:08:31 47° NNW 10:09:48 42° WNW
Spot 4 Rocket 4.1 10:10:48 10° N 10:15:35 60° NW 10:15:35 60° NW
Cosmos 1339 Rocket 4.4 10:14:20 42° SSW 10:16:37 83° W 10:22:53 10° N
SL-8 R/B 4.1 10:17:55 44° NNW 10:19:06 57° NNE 10:23:48 10° ESE
Cosmos 921 Rocket 3.4 10:20:07 52° N 10:20:07 52° N 10:23:24 10° NNE
CZ-4C R/B 4.1 10:20:58 39° N 10:20:58 39° N 10:23:24 10° N
Cosmos 1812 3.1 10:21:49 59° NNE 10:21:49 59° NNE 10:25:00 10° N
Meteor 2-7 Rocket 4.5 10:20:03 57° SSW 10:21:10 77° W 10:26:40 10° N
Cosmos 1500 4.0 10:19:39 10° N 10:22:18 42° N 10:22:18 42° N
Cosmos 2360 Rocket 4.1 10:19:56 10° SSE 10:24:39 28° ESE 10:29:22 10° NE
MSX 3.8 10:22:39 10° N 10:28:22 66° WNW 10:30:09 44° SW
ADEOS Rocket 4.1 10:22:11 10° SE 10:28:44 50° ENE 10:34:40 10° N
Cosmos 1666 4.1 10:25:27 10° N 10:29:03 39° ENE 10:32:36 10° SSE
IRIDIUM 104 4.4 10:24:03 10° N 10:29:17 75° E 10:34:29 10° S
Cosmos 1697 Rocket 4.3 10:30:20 18° NW 10:30:20 18° NW 10:33:42 10° N
Cosmos 1707 Rocket 4.3 10:26:34 15° SSE 10:29:54 50° E 10:34:07 10° NNE
Timation 1 Rocket 4.4 10:25:26 10° NW 10:31:11 49° WSW 10:36:55 10° S
Cosmos 1980 Rocket 3.1 10:34:34 30° WNW 10:34:40 30° WNW 10:39:39 10° N
IRIDIUM 114 4.2 10:33:11 10° N 10:38:26 89° W 10:43:38 10° S
Cosmos 2322 Rocket 2.3 10:37:25 20° SSW 10:41:22 75° ESE 10:47:04 10° NNE
USA 234 3.2 10:35:09 10° SE 10:41:42 87° NE 10:48:15 10° NW
FALCON 9 DEB 2.9 10:43:18 87° W 10:43:20 88° NW 10:46:47 10° NE
Cosmos 2263 Rocket 2.1 10:38:20 10° NNW 10:44:00 79° WSW 10:49:41 10° SSE
USA 32 4.4 10:39:00 10° N 10:44:14 67° E 10:49:27 10° SSE
SL-4 R/B 2.2 10:43:55 47° SW 10:45:13 88° SE 10:50:00 10° NE
Cosmos 2228 Rocket 3.9 10:47:13 33° WNW 10:47:13 33° WNW 10:50:40 10° N
IRIDIUM 103 4.2 10:42:21 10° N 10:47:34 74° W 10:52:44 10° S
Cosmos 1733 Rocket 4.5 10:45:58 10° N 10:50:04 39° ENE 10:54:07 10° SSE
Meteor 1-4 Rocket 2.6 10:50:45 51° WNW 10:50:45 51° WNW 10:53:57 10° N
Cosmos 1937 Rocket 4.2 10:45:29 10° N 10:50:32 54° ENE 10:55:32 10° SE
SL-16 R/B 2.1 10:47:27 26° SSW 10:50:44 75° WNW 10:56:26 10° NNE
ARIANE 5 R/B 4.0 10:49:58 10° NNW 10:53:01 19° WNW 10:53:01 19° WNW
ERBS 3.7 10:55:42 25° NW 10:55:42 25° NW 10:58:31 10° NNE
Cosmos 44 Rocket 3.9 10:51:43 13° S 10:55:42 54° ESE 11:00:24 10° NE
ADEOS 4.1 10:50:57 10° NNE 10:56:07 60° ESE 11:01:15 10° S
Cosmos 841 Rocket 4.0 10:51:28 10° S 10:56:35 62° ESE 11:01:46 10° NNE
Cosmos 1869 Rocket 3.7 10:53:05 10° NNW 10:57:16 48° W 11:01:24 10° SSW
CZ-2C R/B 4.1 10:54:45 10° NNW 10:57:09 23° NW 10:57:09 23° NW
CZ-2C R/B 2.5 10:54:04 10° N 10:59:12 69° WNW 11:04:21 10° SSW
IDEFIX/ARIANE 42P 3.8 10:56:21 10° NNW 11:00:22 23° WNW 11:00:51 22° WNW
Gbstr 26 Del rocket 4.5 10:52:50 10° NW 11:00:56 79° NE 11:07:59 10° ESE
Cosmos 2227 4.3 10:57:54 10° NNW 11:03:21 50° WSW 11:08:43 10° S
Cosmos 2173 Rocket 4.4 10:57:01 10° N 11:03:22 70° E 11:09:42 10° SSE
Cosmos 1862 Rocket 4.2 10:59:47 10° S 11:04:06 58° E 11:08:23 10° NNE
Cosmos 1763 Rocket 3.6 11:01:39 21° SW 11:05:04 56° WNW 11:10:18 10° N
SJ-6F 4.4 11:01:40 10° NNE 11:05:47 81° ESE 11:09:51 10° S
IRIDIUM 106 4.5 11:00:49 10° NNW 11:05:50 49° W 11:10:49 10° SSW
SJ 16-02 1.7 11:02:52 10° NNW 11:07:00 40° WSW 11:11:06 10° S
CZ-4B R/B 1.7 11:04:32 10° SSE 11:07:37 62° ENE 11:10:48 10° N
PSLV R/B 3.8 11:05:15 10° N 11:09:15 44° WNW 11:11:42 21° SW
H-2A R/B 2.7 11:08:08 10° SSW 11:12:03 33° W 11:16:06 10° NNW
Cosmos 2219 Rocket 4.5 11:10:28 10° SSE 11:15:01 26° ESE 11:19:37 10° NE
Cosmos 1689 Rocket 4.5 11:13:38 10° SE 11:16:11 27° ENE 11:18:45 10° NNE
Cosmos 1570 Rocket 4.0 11:13:55 10° SSW 11:19:13 84° WNW 11:24:36 10° NNE
ERS-2 2.6 11:19:10 10° S 11:22:34 37° W 11:26:01 10° NNW
X-37B 1.0 11:23:27 16° WNW 11:25:51 62° NNE 11:29:00 10° ESE
Okean 1 4.2 11:23:02 10° S 11:26:58 53° E 11:30:55 10° NNE
Lacrosse 5 4.1 11:26:12 10° NW 11:28:26 13° NNW 11:30:41 10° NNE
Intercosmos 25 3.5 11:25:02 10° S 11:29:34 77° E 11:32:55 10° N
CZ-4B R/B 3.9 11:26:16 10° NNE 11:29:45 43° E 11:33:10 10° S
Cosmos 990 Rocket 4.4 11:26:04 10° NW 11:30:55 40° WSW 11:35:45 10° S
Cosmos 2333 Rocket 3.7 11:26:07 10° S 11:31:25 40° ESE 11:36:45 10° NE
BREEZE M DEB (TANK) 3.3 11:21:23 10° WNW 11:31:31 55° SW 11:34:56 10° SSE
Cosmos 540 Rocket 3.5 11:26:27 10° SSW 11:31:33 63° WNW 11:36:42 10° NNE
CZ-4B R/B 4.1 11:27:16 10° NNE 11:31:40 89° ESE 11:36:07 10° SSW
Cosmos 2016 Rocket 4.1 11:27:59 10° N 11:34:08 81° E 11:40:13 10° S
Cosmos 1000 Rocket 4.5 11:28:52 10° SSW 11:34:59 61° W 11:41:05 10° N
Cosmos 1484 Rocket 2.8 11:31:15 10° N 11:35:13 65° WNW 11:39:11 10° SSW
Meteor 2-20 4.4 11:30:14 10° SSW 11:36:21 77° W 11:42:29 10° N
ALOS 2.2 11:33:32 10° N 11:38:11 70° WNW 11:42:48 10° SSW
COSMO-SKYMED 1 3.4 11:34:51 10° SSE 11:39:04 55° ENE 11:43:20 10° N
Cosmos 2322 4.3 11:34:12 10° S 11:39:45 61° ESE 11:45:20 10° NNE
Cosmos 1536 3.5 11:39:19 10° NNW 11:42:59 33° W 11:46:39 10° SSW
Meteor 1-31 Rocket 2.8 11:43:01 10° N 11:46:47 57° WNW 11:50:34 10° SSW
Cosmos 1437 Rocket 2.6 11:44:50 10° SSW 11:48:35 68° W 11:52:24 10° N
Cosmos 1544 3.4 11:46:57 10° N 11:50:32 70° E 11:54:06 10° SSE
PSLV R/B 4.0 11:49:02 10° SSE 11:53:05 85° ENE 11:57:10 10° NNW
